Вернуться в каталог

STARLINK-37479

АктивенСвязьSSO
NORAD 68861·PAYLOAD·🇺🇸 United States

Запущен Apr 26, 2026 с Vandenberg Space Force Base

Loading…

Ближайшие Пролёты (ближайшие 24 часа)

TLE

СвежийSource: CelesTrak SupGP

Эпоха: Sep 14, 2026, 22:40 UTC

1 68861C 26094Y   26257.94493056  .00047155  00000+0  14639-2 0  2575
2 68861  97.2838 271.2270 0001639  88.3762 194.4949 15.33413529    19

Отслеживайте STARLINK-37479 в реальном времени с AllMySat

Download on the App Store